SB KEPS @ AMSAT $ORB14352.O Orbital Elements 14352.OSCAR
HR AMSAT ORBITAL ELEMENTS FOR OSCAR SATELLITES FROM WA5QGD FORT WORTH,TX December 18, 2014 BID: ORB14352.O TO ALL RADIO AMATEURS BT
Satellite: AO-07 Catalog number: 07530 Epoch time: 14352.50453580 Element set: 146 Inclination: 101.4973 deg RA of node: 328.4226 deg Eccentricity: 0.0011701 Arg of perigee: 296.5052 deg Mean anomaly: 220.3786 deg Mean motion: 12.53610504 rev/day Decay rate: -3.8e-07 rev/day^2 Epoch rev: 83461 Checksum: 269
Satellite: FO-29 Catalog number: 24278 Epoch time: 14351.48724718 Element set: 540 Inclination: 098.5192 deg RA of node: 340.0686 deg Eccentricity: 0.0350661 Arg of perigee: 181.8825 deg Mean anomaly: 349.6767 deg Mean motion: 13.53039414 rev/day Decay rate: -9.0e-08 rev/day^2 Epoch rev: 90545 Checksum: 333
Satellite: SO-33 Catalog number: 25509 Epoch time: 14351.71125005 Element set: 903 Inclination: 031.4316 deg RA of node: 200.3627 deg Eccentricity: 0.0348869 Arg of perigee: 282.4875 deg Mean anomaly: 137.3485 deg Mean motion: 14.29775935 rev/day Decay rate: 5.48e-06 rev/day^2 Epoch rev: 84343 Checksum: 318
Satellite: RS-22 Catalog number: 27939 Epoch time: 14352.80297932 Element set: 141 Inclination: 097.8209 deg RA of node: 157.9809 deg Eccentricity: 0.0012362 Arg of perigee: 240.3078 deg Mean anomaly: 119.6909 deg Mean motion: 14.65629177 rev/day Decay rate: 2.283e-05 rev/day^2 Epoch rev: 59976 Checksum: 350
Satellite: HO-68 Catalog number: 36122 Epoch time: 14352.72930526 Element set: 221 Inclination: 100.2240 deg RA of node: 038.7637 deg Eccentricity: 0.0007872 Arg of perigee: 173.6641 deg Mean anomaly: 186.4575 deg Mean motion: 13.16321641 rev/day Decay rate: -6.0e-07 rev/day^2 Epoch rev: 24071 Checksum: 273
Satellite: AO-73 Catalog number: 39444 Epoch time: 14352.14896095 Element set: 334 Inclination: 097.7563 deg RA of node: 056.4311 deg Eccentricity: 0.0060896 Arg of perigee: 006.7637 deg Mean anomaly: 353.4382 deg Mean motion: 14.79270539 rev/day Decay rate: 2.587e-05 rev/day^2 Epoch rev: 5664 Checksum: 343
Satellite: EO-79 Catalog number: 40025 Epoch time: 14352.70767696 Element set: 537 Inclination: 097.9668 deg RA of node: 247.6465 deg Eccentricity: 0.0014390 Arg of perigee: 057.2293 deg Mean anomaly: 303.0330 deg Mean motion: 14.86156367 rev/day Decay rate: 4.747e-05 rev/day^2 Epoch rev: 2698 Checksum: 344
/EX SB KEPS @ AMSAT $ORB14352.D Orbital Elements 14352.MICROS
HR AMSAT ORBITAL ELEMENTS FOR THE MICROSATS FROM WA5QGD FORT WORTH,TX December 18, 2014 BID: ORB14352.D TO ALL RADIO AMATEURS BT
Satellite: UO-11 Catalog number: 14781 Epoch time: 14351.77673808 Element set: 691 Inclination: 097.8294 deg RA of node: 048.1110 deg Eccentricity: 0.0007359 Arg of perigee: 307.9882 deg Mean anomaly: 052.0666 deg Mean motion: 14.82007543 rev/day Decay rate: 1.514e-05 rev/day^2 Epoch rev: 65515 Checksum: 315
Satellite: AO-16 Catalog number: 20439 Epoch time: 14351.80823955 Element set: 196 Inclination: 098.5258 deg RA of node: 285.8314 deg Eccentricity: 0.0010275 Arg of perigee: 342.5026 deg Mean anomaly: 043.3380 deg Mean motion: 14.32453606 rev/day Decay rate: 3.24e-06 rev/day^2 Epoch rev: 30077 Checksum: 291
Satellite: LO-19 Catalog number: 20442 Epoch time: 14352.39219154 Element set: 130 Inclination: 098.4969 deg RA of node: 286.5067 deg Eccentricity: 0.0010970 Arg of perigee: 328.0801 deg Mean anomaly: 031.9718 deg Mean motion: 14.32651512 rev/day Decay rate: 3.31e-06 rev/day^2 Epoch rev: 30105 Checksum: 278
Satellite: AO-27 Catalog number: 22825 Epoch time: 14352.53705075 Element set: 845 Inclination: 098.6868 deg RA of node: 297.8383 deg Eccentricity: 0.0009551 Arg of perigee: 115.8148 deg Mean anomaly: 013.7027 deg Mean motion: 14.29803784 rev/day Decay rate: 2.75e-06 rev/day^2 Epoch rev: 10712 Checksum: 326
Satellite: IO-26 Catalog number: 22826 Epoch time: 14352.39816446 Element set: 602 Inclination: 098.6810 deg RA of node: 297.8913 deg Eccentricity: 0.0010098 Arg of perigee: 109.3561 deg Mean anomaly: 250.8713 deg Mean motion: 14.30112491 rev/day Decay rate: 2.98e-06 rev/day^2 Epoch rev: 10724 Checksum: 301
Satellite: GO-32 Catalog number: 25397 Epoch time: 14352.19459990 Element set: 523 Inclination: 098.4966 deg RA of node: 303.5569 deg Eccentricity: 0.0002348 Arg of perigee: 119.0376 deg Mean anomaly: 000.1903 deg Mean motion: 14.23497589 rev/day Decay rate: 6.8e-07 rev/day^2 Epoch rev: 85404 Checksum: 330
Satellite: NO-44 Catalog number: 26931 Epoch time: 14352.38891166 Element set: 777 Inclination: 067.0527 deg RA of node: 283.4270 deg Eccentricity: 0.0007289 Arg of perigee: 269.7194 deg Mean anomaly: 090.3072 deg Mean motion: 14.30220122 rev/day Decay rate: 1.99e-06 rev/day^2 Epoch rev: 68994 Checksum: 327
Satellite: SO-50 Catalog number: 27607 Epoch time: 14352.83515616 Element set: 606 Inclination: 064.5572 deg RA of node: 029.3015 deg Eccentricity: 0.0068697 Arg of perigee: 324.5807 deg Mean anomaly: 035.1236 deg Mean motion: 14.74251875 rev/day Decay rate: 2.379e-05 rev/day^2 Epoch rev: 64469 Checksum: 326
Satellite: CO-55 Catalog number: 27844 Epoch time: 14352.68051235 Element set: 95 Inclination: 098.6969 deg RA of node: 358.7943 deg Eccentricity: 0.0010791 Arg of perigee: 102.8878 deg Mean anomaly: 320.0308 deg Mean motion: 14.21657292 rev/day Decay rate: 5.17e-06 rev/day^2 Epoch rev: 59479 Checksum: 344
Satellite: CO-57 Catalog number: 27848 Epoch time: 14352.53321247 Element set: 35 Inclination: 098.7065 deg RA of node: 358.4608 deg Eccentricity: 0.0010709 Arg of perigee: 109.5556 deg Mean anomaly: 042.7339 deg Mean motion: 14.21324397 rev/day Decay rate: 4.43e-06 rev/day^2 Epoch rev: 59468 Checksum: 325
Satellite: AO-51 Catalog number: 28375 Epoch time: 14352.43464527 Element set: 17 Inclination: 098.2743 deg RA of node: 293.2800 deg Eccentricity: 0.0083680 Arg of perigee: 154.8976 deg Mean anomaly: 205.6317 deg Mean motion: 14.41530765 rev/day Decay rate: 3.93e-06 rev/day^2 Epoch rev: 55045 Checksum: 315
Satellite: CP3 Catalog number: 31129 Epoch time: 14351.52879248 Element set: 925 Inclination: 097.9576 deg RA of node: 320.4961 deg Eccentricity: 0.0098168 Arg of perigee: 159.0622 deg Mean anomaly: 340.6116 deg Mean motion: 14.55255608 rev/day Decay rate: 1.545e-05 rev/day^2 Epoch rev: 40669 Checksum: 329
Satellite: CO-65 Catalog number: 32785 Epoch time: 14352.38935586 Element set: 143 Inclination: 097.6760 deg RA of node: 037.4495 deg Eccentricity: 0.0012377 Arg of perigee: 306.1575 deg Mean anomaly: 175.9871 deg Mean motion: 14.86081983 rev/day Decay rate: 2.048e-05 rev/day^2 Epoch rev: 35937 Checksum: 356
Satellite: PRISM Catalog number: 33493 Epoch time: 14352.73723703 Element set: 590 Inclination: 098.2521 deg RA of node: 176.5253 deg Eccentricity: 0.0016956 Arg of perigee: 199.3028 deg Mean anomaly: 160.7608 deg Mean motion: 14.91313634 rev/day Decay rate: 8.514e-05 rev/day^2 Epoch rev: 31966 Checksum: 312
Satellite: SOHLA-1 Catalog number: 33496 Epoch time: 14352.39621220 Element set: 540 Inclination: 098.1901 deg RA of node: 114.0492 deg Eccentricity: 0.0006529 Arg of perigee: 029.7410 deg Mean anomaly: 006.4380 deg Mean motion: 14.71090362 rev/day Decay rate: 1.060e-05 rev/day^2 Epoch rev: 31659 Checksum: 263
Satellite: TISAT-1 Catalog number: 36799 Epoch time: 14352.23476155 Element set: 786 Inclination: 098.0178 deg RA of node: 085.7410 deg Eccentricity: 0.0014437 Arg of perigee: 082.0285 deg Mean anomaly: 330.2717 deg Mean motion: 14.87056309 rev/day Decay rate: 4.031e-05 rev/day^2 Epoch rev: 24005 Checksum: 300
Satellite: STUDSAT Catalog number: 36801 Epoch time: 14351.78582480 Element set: 957 Inclination: 098.0546 deg RA of node: 097.6007 deg Eccentricity: 0.0006678 Arg of perigee: 042.3645 deg Mean anomaly: 108.7076 deg Mean motion: 15.03200417 rev/day Decay rate: 3.0907e-04 rev/day^2 Epoch rev: 24063 Checksum: 300
Satellite: ALMASAT-1 Catalog number: 38078 Epoch time: 14352.39534811 Element set: 238 Inclination: 069.4627 deg RA of node: 331.1864 deg Eccentricity: 0.0536858 Arg of perigee: 145.7248 deg Mean anomaly: 217.9852 deg Mean motion: 14.63825140 rev/day Decay rate: 4.2799e-04 rev/day^2 Epoch rev: 14844 Checksum: 343
Satellite: XATCOBEO Catalog number: 38082 Epoch time: 14243.34478676 Element set: 563 Inclination: 069.3815 deg RA of node: 097.0364 deg Eccentricity: 0.0033293 Arg of perigee: 225.1799 deg Mean anomaly: 135.4582 deg Mean motion: 16.41261006 rev/day Decay rate: 1.3583328e-01 rev/day^2 Epoch rev: 13623 Checksum: 317
Satellite: CUBEBUG-1 Catalog number: 39153 Epoch time: 14352.50210464 Element set: 728 Inclination: 098.0319 deg RA of node: 072.3818 deg Eccentricity: 0.0018839 Arg of perigee: 115.6483 deg Mean anomaly: 244.6676 deg Mean motion: 14.78470825 rev/day Decay rate: 3.893e-05 rev/day^2 Epoch rev: 8877 Checksum: 335
Satellite: ESTCUBE-1 Catalog number: 39161 Epoch time: 14352.72779351 Element set: 765 Inclination: 098.0870 deg RA of node: 072.2030 deg Eccentricity: 0.0010256 Arg of perigee: 163.7842 deg Mean anomaly: 196.3731 deg Mean motion: 14.70580613 rev/day Decay rate: 2.493e-05 rev/day^2 Epoch rev: 8671 Checksum: 300
Satellite: DUCHIFAT-1 Catalog number: 40021 Epoch time: 14352.68094073 Element set: 540 Inclination: 097.9697 deg RA of node: 247.7213 deg Eccentricity: 0.0015449 Arg of perigee: 058.3614 deg Mean anomaly: 301.9148 deg Mean motion: 14.86592201 rev/day Decay rate: 5.757e-05 rev/day^2 Epoch rev: 2697 Checksum: 313
Satellite: NANOSATCBR1 Catalog number: 40024 Epoch time: 14352.69787476 Element set: 530 Inclination: 097.9665 deg RA of node: 247.6590 deg Eccentricity: 0.0014757 Arg of perigee: 058.6445 deg Mean anomaly: 301.6215 deg Mean motion: 14.86362381 rev/day Decay rate: 5.385e-05 rev/day^2 Epoch rev: 2697 Checksum: 332
